Погода в Волково

Россия / Амурская область     50°14′55″N   127°46′29″E
темп.,
°C
ветер,
м/с
пор.,
м/с
влажн.,
%
обл.,
%
осадки,
мм/ч
давл.,
гПа
погр.,
м
9 декабря, чт
чт900:00−9ю410925 0.0 1023137
03:00−9ю510917 0.0 1021159
06:00−10ю410906 0.0 1020137
09:00−8ю5118874 0.0 1019183
12:00−4ю5988100 0.0 1018286
15:00−2ю4889100 0.0 1017230
18:00−3ююз3789100 0.0 1018182
21:00−4ююз2598100 1.7 1019208
10 декабря, пт
пт1000:00−4з2398100 2.4 1020125
03:00−6ссз4891100 3.2 1021302
06:00−8ссз4988100 0.0 1023352
09:00−10ссз41089100 0.0 1025299
12:00−8ссз4888100 0.0 1025347
15:00−9ссз3786100 0.0 1026210
18:00−16ссз229414 0.0 102814
21:00−18сз2296100 0.0 102810
11 декабря, сб
сб1100:00−16зсз1195100 0.0 10289
03:00−16ю119598 0.0 102811
06:00−19ююв2299100 0.0 102714
09:00−15ю2494100 0.0 102675
12:00−10ю3486100 0.0 1024160
15:00−8ююв2396100 0.3 1022155
18:00−7ю2496100 0.7 1021129
21:00−8з2497100 1.3 1019106
12 декабря, вс
вс1200:00−9з2397100 0.3 101860
03:00−10сз4795100 0.7 1017298
06:00−12сз51094100 0.3 1016426
09:00−13сз61193100 0.5 1017533
12:00−12ссз71190100 0.2 1017730
15:00−12сз61088100 0.3 1016827
18:00−13сз61286100 0.1 1017726
21:00−14сз6138286 0.1 1018642
13 декабря, пн
пн1300:00−17сз511807 0.0 1018293
03:00−20зсз37863 0.0 101877
06:00−23з22885 0.0 101823
09:00−26зюз229110 0.0 101810
12:00−16юз1277100 0.0 1017103
15:00−14юв238894 0.0 101584
18:00−17ю239295 0.0 101645
21:00−17ююз2296100 0.0 101639